Regional Weather Roundup
Issued by NWS Green Bay, WI

Home | Current Version | Previous Version | Graphics & Text | Print | Product List | Glossary Off
Versions: 1 2 3 4 5 6 7 8 9 10 11 12 13 14 15 16 17 18 19 20 21 22 23 24 25 26 27 28 29 30 31 32 33 34 35 36 37 38 39 40 41 42 43 44 45 46 47 48 49 50

000
ASUS43 KGRB 202359
RWRGRB

NORTH-CENTRAL AND NORTHEAST WISCONSIN REGIONAL WEATHER ROUNDUP
NATIONAL WEATHER SERVICE GREEN BAY WI
700 PM CDT MON OCT 20 2014

WIZ005-009-010>012-018-019-210100-
NORTH CENTRAL WISCONSIN

CITY           SKY/WX    TMP DP  RH WIND       PRES   REMARKS
IRONWOOD       CLOUDY    45  43  93 N3        30.02R
MANITOWISH WTR NOT AVBL
ARBOR VITAE    NOT AVBL
EAGLE RIVER    NOT AVBL
LAND O LAKES   NOT AVBL
RHINELANDER    CLOUDY    44  40  85 N8        30.02R
PHILLIPS       NOT AVBL
ANTIGO         NOT AVBL
TOMAHAWK       NOT AVBL
MERRILL        NOT AVBL
$$

WIZ013-073-210100-
NORTHEAST WISCONSIN

CITY           SKY/WX    TMP DP  RH WIND       PRES   REMARKS
IRON MOUNTAIN  CLOUDY    45  38  76 N9        29.98R
MARINETTE      CLOUDY    48  39  71 N5        29.97R
$$

WIZ017-030-035>037-045-210100-
CENTRAL WISCONSIN

CITY           SKY/WX    TMP DP  RH WIND       PRES   REMARKS
MEDFORD        NOT AVBL
WAUSAU         CLOUDY    49  40  71 NW5       30.00R
MOSINEE        NOT AVBL
MARSHFIELD     CLOUDY    50  41  71 N5        30.01R
WISC RAPIDS    CLOUDY    51  40  65 N5        30.02R
STEVENS POINT  NOT AVBL
WAUPACA        NOT AVBL
SHAWANO        NOT AVBL
CLINTONVILLE   NOT AVBL
$$

WIZ038-039-048-051-210100-
FOX VALLEY

CITY           SKY/WX    TMP DP  RH WIND       PRES   REMARKS
NWS GREEN BAY  LGT RAIN  49  45  86 N6        29.98R
APPLETON       CLOUDY    50  43  76 NW8       29.98R
OSHKOSH        CLOUDY    51  44  77 NW7       29.98R
FOND DU LAC    CLOUDY    51  42  71 NW8       29.98R
$$

WIZ022-050-052-210100-
EAST CENTRAL WISCONSIN

CITY           SKY/WX    TMP DP  RH WIND       PRES   REMARKS
STURGEON BAY   CLOUDY    48  39  71 N17G23    29.97R
MANITOWOC      NOT AVBL
SHEBOYGAN      CLOUDY    49  44  83 N5        29.98R
$$

LMZ563-521-522-541>543-210100-
LAKESHORE

STATION/POSITION TIME  TEMP    WIND        PRES    VSBY  WAVE
                       AIR SEA DIR/SP/G                  HT/PER
                 (UTC) (F)     (DEG/KT/KT) (MB)    (MI)  (FT/S)
SHEBOYGAN LKSHOR 2300   52 50  350/  7/  7 1014.3R
KEWAUNEE LKSHORE 2300   49     310/  4/  8 1013.3R
NORTHPORT PIER   2300   48     350/ 20/ 22 1014.2R
N MID LAKE BUOY  2300   47 51  330/ 21/ 23 1012.8R         4/ 5
CHAMBERS ISLAND  2300   49     340/ 16/ 19 1014.6R
MENOMINEE LKSHOR 2300   49     340/ 11/ 12 1015.1R
$$



USA.gov is the U.S. government's official web portal to all federal, state and local government web resources and services.